Date String (YYYY-MM-DD hh:mm:ss) UTC,Instrument flags,Ambient pressure (hPa),Sample flow (lpm),Bypass flow (lpm),Sample temperature (°C),Ambient temperature (°C),ASC tube jacket temperature (°C),LED temperature (°C),Box temperature (°C),Sample RH (%),Span deviation,Mass concentration (μg/m³),Mass concentration (μg/m³),Mass concentration (μg/m³)
DateTimeUTC,F1_M11,P_M11,Q1_M11,Q2_M11,T1_M11,T2_M11,T3_M11,T4_M11,T5_M11,U1_M11,ZSPAN_M11,X0_M11,X2_M11,X1_M11
2021-12-22 19:00:00,,0820.9,4.98,0.00,26.5,25.4,00.0,35.5,28.2,01.5,0000.0,0000.73,0000.50,0000.43
2021-12-22 19:01:00,,0820.9,5.01,0.00,26.5,25.4,00.0,35.5,28.2,01.6,0000.0,0000.70,0000.50,0000.43
2021-12-22 19:02:00,,0820.9,4.98,0.00,26.5,25.4,00.0,35.5,28.2,01.6,0000.0,0000.71,0000.50,0000.43
2021-12-22 19:03:00,,0820.9,5.00,0.00,26.6,25.5,00.0,35.5,28.3,01.6,0000.0,0000.72,0000.50,0000.43
2021-12-22 19:04:00,,0821.0,5.00,0.00,26.6,25.5,00.0,35.5,28.2,01.5,0000.0,0000.64,0000.48,0000.42
2021-12-22 19:05:00,,0821.0,5.00,0.00,26.6,25.5,00.0,35.5,28.2,01.5,0000.0,0000.59,0000.48,0000.42
2021-12-22 19:06:00,,0821.0,5.01,0.00,26.6,25.5,00.0,35.5,28.3,01.6,0000.0,0000.72,0000.50,0000.41
2021-12-22 19:07:00,,0821.0,4.99,0.00,26.6,25.5,00.0,35.5,28.3,01.6,0000.0,0001.83,0000.51,0000.42
2021-12-22 19:08:00,,0821.0,5.01,0.00,26.6,25.5,00.0,35.5,28.3,01.6,0000.0,0002.29,0000.52,0000.42
2021-12-22 19:09:00,,0821.1,5.00,0.00,26.6,25.5,00.0,35.5,28.3,01.6,0000.0,0002.80,0000.55,0000.42
2021-12-22 19:10:00,,0821.0,5.00,0.00,26.6,25.5,00.0,35.5,28.3,01.6,0000.0,0003.38,0000.63,0000.43
2021-12-22 19:11:00,,0820.9,5.00,0.00,26.6,25.6,00.0,35.5,28.3,01.6,0000.0,0003.79,0000.66,0000.44
2021-12-22 19:12:00,,0821.0,4.99,0.00,26.6,25.6,00.0,35.5,28.3,01.7,0000.0,0004.86,0000.70,0000.44
2021-12-22 19:13:00,,0821.0,5.01,0.00,26.6,25.6,00.0,35.5,28.4,01.7,0000.0,0004.88,0000.71,0000.44
2021-12-22 19:14:00,,0821.0,5.00,0.00,26.6,25.6,00.0,35.5,28.3,01.7,0000.0,0004.88,0000.71,0000.44
2021-12-22 19:15:00,,0821.0,4.99,0.00,26.7,25.7,00.0,35.6,28.4,01.7,0000.0,0005.18,0000.75,0000.45
2021-12-22 19:16:00,,0821.0,5.02,0.00,26.7,25.7,00.0,35.6,28.4,01.7,0000.0,0005.40,0000.75,0000.44
2021-12-22 19:17:00,,0821.0,4.99,0.00,26.7,25.7,00.0,35.6,28.4,01.7,0000.0,0005.30,0000.73,0000.44
2021-12-22 19:18:00,,0821.0,4.99,0.00,26.7,25.7,00.0,35.6,28.4,01.7,0000.0,0004.43,0000.74,0000.44
2021-12-22 19:19:00,,0820.9,5.00,0.00,26.7,25.7,00.0,35.6,28.4,01.8,0000.0,0003.85,0000.73,0000.44
2021-12-22 19:20:00,,0820.9,5.00,0.00,26.7,25.7,00.0,35.6,28.4,01.8,0000.0,0003.43,0000.70,0000.44
2021-12-22 19:21:00,,0820.9,5.00,0.00,26.7,25.7,00.0,35.6,28.4,01.7,0000.0,0002.98,0000.66,0000.43
2021-12-22 19:22:00,,0820.9,5.01,0.00,26.7,25.7,00.0,35.6,28.4,01.8,0000.0,0002.67,0000.60,0000.42
2021-12-22 19:23:00,,0820.9,4.98,0.00,26.7,25.7,00.0,35.6,28.4,01.8,0000.0,0001.47,0000.56,0000.42
2021-12-22 19:24:00,,0820.8,5.01,0.00,26.7,25.7,00.0,35.6,28.4,01.8,0000.0,0001.32,0000.54,0000.42
2021-12-22 19:25:00,,0820.8,4.99,0.00,26.7,25.6,00.0,35.6,28.4,01.8,0000.0,0001.38,0000.55,0000.42
2021-12-22 19:26:00,,0820.8,5.01,0.00,26.7,25.6,00.0,35.6,28.4,01.8,0000.0,0001.27,0000.53,0000.42
2021-12-22 19:27:00,,0820.7,5.00,0.00,26.7,25.6,00.0,35.6,28.4,01.8,0000.0,0000.86,0000.50,0000.42
2021-12-22 19:28:00,,0820.7,5.00,0.00,26.7,25.6,00.0,35.6,28.4,01.8,0000.0,0000.83,0000.49,0000.42
2021-12-22 19:29:00,,0820.7,5.00,0.00,26.7,25.6,00.0,35.6,28.4,01.8,0000.0,0001.20,0000.50,0000.42
2021-12-22 19:30:00,,0820.7,5.01,0.00,26.7,25.6,00.0,35.6,28.4,01.8,0000.0,0001.95,0000.50,0000.42
2021-12-22 19:31:00,,0820.6,4.98,0.00,26.7,25.6,00.0,35.6,28.4,01.9,0000.0,0001.94,0000.49,0000.41
2021-12-22 19:32:00,,0820.6,5.01,0.00,26.7,25.6,00.0,35.7,28.4,01.9,0000.0,0001.89,0000.47,0000.40
2021-12-22 19:33:00,,0820.6,4.98,0.00,26.7,25.6,00.0,35.7,28.4,01.9,0000.0,0001.91,0000.47,0000.40
2021-12-22 19:34:00,,0820.5,5.02,0.00,26.7,25.6,00.0,35.7,28.4,01.9,0000.0,0001.93,0000.48,0000.41
2021-12-22 19:35:00,,0820.5,4.99,0.00,26.7,25.6,00.0,35.7,28.4,02.0,0000.0,0001.94,0000.49,0000.41
2021-12-22 19:36:00,,0820.5,5.01,0.00,26.7,25.6,00.0,35.7,28.4,02.0,0000.0,0001.89,0000.48,0000.41
2021-12-22 19:37:00,,0820.5,5.00,0.00,26.7,25.6,00.0,35.7,28.4,02.0,0000.0,0001.90,0000.48,0000.40
2021-12-22 19:38:00,,0820.5,5.00,0.00,26.7,25.6,00.0,35.7,28.4,02.0,0000.0,0001.92,0000.48,0000.40
2021-12-22 19:39:00,,0820.5,5.01,0.00,26.7,25.6,00.0,35.7,28.4,02.1,0000.0,0001.94,0000.48,0000.39
2021-12-22 19:40:00,,0820.3,5.00,0.00,26.7,25.7,00.0,35.7,28.4,02.1,0000.0,0001.48,0000.47,0000.39
2021-12-22 19:41:00,,0820.3,4.98,0.00,26.7,25.7,00.0,35.7,28.4,02.3,0000.0,0000.72,0000.46,0000.38
2021-12-22 19:42:00,,0820.5,5.00,0.00,26.7,25.6,00.0,35.7,28.4,02.3,0000.0,0000.72,0000.46,0000.38
2021-12-22 19:43:00,,0820.4,5.01,0.00,26.7,25.6,00.0,35.7,28.4,02.2,0000.0,0000.75,0000.48,0000.38
2021-12-22 19:44:00,,0820.4,4.98,0.00,26.7,25.6,00.0,35.7,28.4,02.2,0000.0,0000.71,0000.47,0000.37
2021-12-22 19:45:00,,0820.3,5.00,0.00,26.7,25.6,00.0,35.7,28.4,02.2,0000.0,0000.69,0000.46,0000.36
2021-12-22 19:46:00,,0820.3,5.00,0.00,26.7,25.6,00.0,35.7,28.4,02.2,0000.0,0000.67,0000.45,0000.35
2021-12-22 19:47:00,,0820.2,5.00,0.00,26.7,25.7,00.0,35.7,28.4,02.2,0000.0,0000.62,0000.44,0000.34
2021-12-22 19:48:00,,0820.2,4.98,0.00,26.7,25.7,00.0,35.7,28.4,02.3,0000.0,0000.63,0000.45,0000.34
2021-12-22 19:49:00,,0820.3,5.01,0.00,26.7,25.6,00.0,35.7,28.4,02.4,0000.0,0000.74,0000.45,0000.33
2021-12-22 19:50:00,,0820.2,5.00,0.00,26.7,25.6,00.0,35.7,28.4,02.4,0000.0,0000.82,0000.45,0000.32
2021-12-22 19:51:00,,0820.2,5.00,0.00,26.7,25.6,00.0,35.7,28.4,02.4,0000.0,0000.90,0000.45,0000.32
2021-12-22 19:52:00,,0820.2,5.00,0.00,26.7,25.6,00.0,35.7,28.4,02.4,0000.0,0000.92,0000.45,0000.32
2021-12-22 19:53:00,,0820.2,5.00,0.00,26.7,25.6,00.0,35.7,28.4,02.4,0000.0,0000.94,0000.45,0000.32
2021-12-22 19:54:00,,0820.3,5.00,0.00,26.7,25.6,00.0,35.7,28.4,02.4,0000.0,0000.94,0000.44,0000.31
2021-12-22 19:55:00,,0820.3,5.00,0.00,26.7,25.6,00.0,35.7,28.4,02.4,0000.0,0001.68,0000.51,0000.31
2021-12-22 19:56:00,,0820.2,5.00,0.00,26.7,25.6,00.0,35.7,28.4,02.4,0000.0,0003.14,0000.67,0000.32
2021-12-22 19:57:00,,0820.2,5.00,0.00,26.7,25.7,00.0,35.7,28.4,02.4,0000.0,0003.19,0000.69,0000.33
2021-12-22 19:58:00,,0820.2,4.98,0.00,26.7,25.7,00.0,35.7,28.5,02.4,0000.0,0003.15,0000.66,0000.33
2021-12-22 19:59:00,,0820.2,5.01,0.00,26.8,25.7,00.0,35.7,28.5,02.5,0000.0,0003.15,0000.65,0000.32
